User: anonymous   Login
Location: ????? ????
(37.9717°N, 23.4051°E)
Time: 18:20:03
(UTC+00:00)
Language:

CZ-4C R/B - Orbit

View from above orbital plane
View from above orbital plane
View from above satellite
View from above satellite

Ground track
Ground track

The orbit data is extracted from the following two-line orbital elements,

1 36416U 10009D   24166.88583833  .00000436  00000-0  14689-3 0  9999
2 36416  63.4000 230.8652 0635181 358.9105   1.0510 13.70788389714100
Epoch (UTC): 14 June 2024 21:15:36
Eccentricity: 0.0635181
inclination: 63.4000°
perigee height: 528 km
apogee height: 1465 km
right ascension of ascending node: 230.8652°
argument of perigee: 358.9105°
revolutions per day: 13.70788389
mean anomaly at epoch: 1.0510°
orbit number at epoch: 71410

The dashed part of the orbit path shows where the satellite is in the earth's shadow,  

DLR